Location: Strawberry
(45.6646°N, 111.9596°W)
Time: 07:40:24
(UTC+00:00)

DELFI C3 - Visible Passes

Search period start: 27 November 2022 00:00
Search period end: 07 December 2022 00:00
Orbit: 503 x 518 km, 97.3° (Epoch: 26 November)

Date Brightness Start Highest point End Pass type
(mag) Time Alt. Az. Time Alt. Az. Time Alt. Az.
27 Nov ? 00:45:51 12° NE 00:45:51 12° NE 00:46:30 10° NE visible
27 Nov ? 02:20:47 19° NNW 02:20:47 19° NNW 02:22:00 10° NNW visible
27 Nov ? 13:44:48 10° ENE 13:46:18 12° E 13:47:48 10° ESE visible
28 Nov ? 02:04:31 20° NNW 02:04:31 20° NNW 02:05:45 10° NNW visible
29 Nov ? 01:48:14 19° N 01:48:14 19° N 01:49:21 10° N visible
30 Nov ? 01:31:54 16° N 01:31:54 16° N 01:32:51 10° N visible
30 Nov?03:06:49NW03:06:49NW02:58:26SSWvisible
01 Dec ? 01:15:32 14° NNE 01:15:32 14° NNE 01:16:10 10° NNE visible
01 Dec?02:50:26NW02:50:26NW02:41:57SSWvisible
01 Dec ? 14:11:57 10° NE 14:15:04 25° E 14:18:10 10° SSE visible
02 Dec ? 00:59:06 11° NNE 00:59:06 11° NNE 00:59:17 10° NNE visible
02 Dec ? 02:34:01 10° NNW 02:34:01 10° NNW 02:34:02 10° NNW visible
02 Dec ? 13:56:05 10° NE 13:58:32 17° E 14:00:58 10° SE visible
03 Dec ? 02:17:33 11° NNW 02:17:33 11° NNW 02:17:44 10° NNW visible
03 Dec ? 13:40:55 10° ENE 13:41:55 11° E 13:42:55 10° ESE visible
04 Dec ? 02:01:03 12° N 02:01:03 12° N 02:01:18 10° N visible
05 Dec ? 01:44:30 11° N 01:44:30 11° N 01:44:44 10° N visible
05 Dec?03:19:24NW03:19:24NW03:10:45SWvisible
06 Dec ? 01:27:55 11° N 01:27:55 11° N 01:28:01 10° N visible
06 Dec?03:02:49NW03:02:49NW02:54:11SSWvisible
